Hourly Data Report for September 02, 2004

SHERBROOKE A
QUEBEC

45°26'00.000" N
71°41'00.000" W
241.40 m
7028124
71610
YSC

Download Data

Hourly Data (September 2004)
Hourly Data Report for September 2, 2004
TIME
LST
Temp Definition
°C
Dew Point Definition
°C
Rel Hum Definition
%
Precip. Amount Definition
mm

Wind Dir Definition
10's deg

Wind Spd Definition
km/h
Visibility Definition
km
Stn Press Definition
kPa
Hmdx Definition


Wind Chill Definition


Weather Definition


00:00 8.2 5.0 80   34 4 15.0 99.59      
01:00 7.9 5.2 83   24 4 15.0 99.63      
02:00 6.5 4.6 88     0 15.0 99.66      
03:00 5.1 3.7 91     0 15.0 99.69      
04:00 4.2 3.1 93   27 7 15.0 99.73      
05:00 3.5 2.6 94   27 6 15.0 99.75      
06:00 4.8 4.0 95     0 15.0 99.84      
07:00 6.6 5.2 91     0 24.1 99.89     Mainly Clear
08:00 10.0 4.6 69     0 24.1 99.92     Mainly Clear
09:00 10.8 4.8 66   28 11 24.1 99.92     Mainly Clear
10:00 12.1 3.7 56   33 7 24.1 99.91     Mainly Clear
11:00 12.8 3.4 53   32 6 24.1 99.84     Mainly Clear
12:00 14.2 4.1 51     0 24.1 99.81     Clear
13:00 14.7 4.6 51   32 7 24.1 99.79     Clear
14:00 15.1 4.4 49   30 7 24.1 99.71     Clear
15:00 15.9 5.3 49   26 6 24.1 99.67     Mainly Clear
16:00 15.7 5.0 49   30 4 24.1 99.69     Mainly Clear
17:00 15.3 6.2 55   30 6 15.0 99.67      
18:00 13.5 6.8 64   32 4 15.0 99.61      
19:00 9.3 6.8 84     0 15.0 99.61      
20:00 7.7 6.1 90   14 4 15.0 99.62      
21:00 7.1 6.1 93   11 4 15.0 99.62      
22:00 5.8 5.2 96     0 9.7 99.61      
23:00 4.7 4.1 96   10 4 15.0 99.60      

Notes on Data Quality.

Legend

  • E = Estimated
  • M = Missing
  • NA = Not Available*
  • [empty] = Indicates an unobserved value
Date modified: